Find Starlink 32085

NORAD ID: 59685 Int'l Des: 2024-086 Owner: SPXS Country: US Constellation: starlink operational
LEOCIRCULAR

当前视图

正在加载3D地球...

About Starlink 32085

Starlink 32085 (NORAD 59685) is a starlink constellation satellite (v2 mini) launched May 8, 2024 by SPXS of US. It operates in LEO, CIRCULAR orbit with a mass of 730.00 kg.

即将过境

Passes for default location (London). Set your location on the main map for personalized predictions.

高度历史

Loading altitude history...

两行轨道根数

1 59685U 24086D 26262.83322006 -.00000400 00000-0 -50065-5 0 9992
2 59685 43.0037 43.4996 0001156 302.0970 57.9770 15.27578806133800
Epoch: Sep 19, 2026 • Age: 20 hours

当前状态

高度 482.8 km
远地点 / 近地点 N/A
速度 7.63 km/s
星下点 15.84°N, 30.89°W
发射日期 May 8, 2024
运行时间 2.3 years
类型 internet

技术详情

分类 Payload
质量 730.00 kg
干质量 700.00 kg
长度 0.30 m
跨度 29.00 m
形状 ? Box + pan
制造商 SPXS
平台类型 Starlink V2M
阶段状态 In Orbit
所有者/国家 SPXS/US

Most Searched